| time (UTC) | temp F | wind direction | speed MPH | gust MPH | rain 1hr in | rain 24hr in | rain mn in | humidity % | barometer mb |
| 20260503011600 | 66 | 129 | 2.0 | 9.0 | 0.00 | 0.00 | 0.00 | 76 | 1010.7 |
| 20260503010050 | 66 | 113 | 1.0 | 6.0 | 0.00 | 0.00 | 0.00 | 75 | 1010.7 |
| 20260503004556 | 66 | 156 | 0.0 | 6.0 | 0.00 | 0.00 | 0.00 | 76 | 1010.6 |
| 20260503003055 | 66 | 0 | 1.0 | 10.0 | 0.00 | 0.00 | 0.00 | 76 | 1010.6 |
| 20260503001600 | 67 | 112 | 1.0 | 7.0 | 0.00 | 0.00 | 0.00 | 73 | 1010.9 |
| 20260503000106 | 67 | 126 | 2.0 | 7.0 | 0.00 | 0.00 | 0.00 | 74 | 1010.9 |
| 20260502234611 | 67 | 327 | 0.0 | 8.0 | 0.00 | 0.00 | 0.00 | 75 | 1010.8 |
| 20260502233108 | 67 | 142 | 1.0 | 8.0 | 0.00 | 0.00 | 0.00 | 75 | 1010.9 |
| 20260502231605 | 67 | 0 | 1.0 | 10.0 | 0.00 | 0.00 | 0.00 | 75 | 1011.1 |
| 20260502230054 | 67 | 141 | 2.0 | 12.0 | 0.00 | 0.00 | 0.00 | 74 | 1011.2 |
| 20260502224552 | 66 | 103 | 2.0 | 11.0 | 0.00 | 0.00 | 0.00 | 76 | 1011.2 |
| 20260502223052 | 66 | 204 | 2.0 | 10.0 | 0.00 | 0.00 | 0.00 | 76 | 1011.9 |
| 20260502221603 | 66 | 86 | 3.0 | 13.0 | 0.00 | 0.00 | 0.00 | 76 | 1012.2 |
| 20260502220053 | 67 | 101 | 1.0 | 10.0 | 0.00 | 0.00 | 0.00 | 76 | 1012.5 |
| 20260502214607 | 67 | 151 | 2.0 | 9.0 | 0.00 | 0.00 | 0.00 | 75 | 1012.7 |
| 20260502213055 | 68 | 81 | 3.0 | 9.0 | 0.00 | 0.00 | 0.00 | 75 | 1012.8 |
| 20260502211557 | 68 | 221 | 1.0 | 7.0 | 0.00 | 0.00 | 0.00 | 75 | 1013.1 |
| 20260502210050 | 67 | 150 | 3.0 | 9.0 | 0.00 | 0.00 | 0.00 | 75 | 1013.1 |
| 20260502204553 | 68 | 161 | 1.0 | 7.0 | 0.00 | 0.00 | 0.00 | 75 | 1013.2 |
| 20260502203056 | 68 | 0 | 2.0 | 8.0 | 0.00 | 0.00 | 0.00 | 76 | 1013.3 |
| 20260502201552 | 67 | 282 | 1.0 | 7.0 | 0.00 | 0.00 | 0.00 | 76 | 1013.3 |
| 20260502200052 | 68 | 126 | 1.0 | 7.0 | 0.00 | 0.00 | 0.00 | 76 | 1013.3 |
| 20260502194554 | 68 | 94 | 1.0 | 6.0 | 0.00 | 0.00 | 0.00 | 77 | 1013.6 |
| 20260502193054 | 67 | 169 | 1.0 | 4.0 | 0.00 | 0.00 | 0.00 | 78 | 1013.7 |
| 20260502191554 | 66 | 63 | 2.0 | 7.0 | 0.00 | 0.00 | 0.00 | 79 | 1013.8 |
| 20260502190053 | 65 | 136 | 1.0 | 6.0 | 0.00 | 0.00 | 0.00 | 80 | 1014.2 |
| 20260502184556 | 65 | 0 | 2.0 | 6.0 | 0.00 | 0.00 | 0.00 | 81 | 1014.4 |
| 20260502183057 | 64 | 0 | 0.0 | 4.0 | 0.00 | 0.00 | 0.00 | 84 | 1014.3 |
| 20260502181552 | 63 | 200 | 0.0 | 4.0 | 0.00 | 0.00 | 0.00 | 84 | 1014.5 |
| 20260502163059 | 61 | 75 | 0.0 | 2.0 | 0.00 | 0.00 | 0.00 | 88 | 1015.1 |
| 20260502161604 | 61 | 73 | 0.0 | 3.0 | 0.00 | 0.00 | 0.00 | 89 | 1015.0 |
| 20260502151608 | 60 | 90 | 1.0 | 4.0 | 0.00 | 0.00 | 0.00 | 90 | 1014.9 |
| 20260502150108 | 60 | 88 | 1.0 | 4.0 | 0.00 | 0.00 | 0.00 | 90 | 1014.6 |
| 20260502123056 | 59 | 0 | 0.0 | 2.0 | 0.00 | 0.00 | 0.00 | 90 | 1013.7 |
| 20260502121601 | 59 | 124 | 1.0 | 3.0 | 0.00 | 0.00 | 0.00 | 90 | 1013.7 |
| 20260502120112 | 59 | 137 | 0.0 | 3.0 | 0.00 | 0.00 | 0.00 | 90 | 1013.6 |
| 20260502114600 | 59 | 0 | 0.0 | 2.0 | 0.00 | 0.00 | 0.00 | 91 | 1013.6 |
| 20260502113057 | 59 | 156 | 0.0 | 2.0 | 0.00 | 0.00 | 0.00 | 90 | 1013.4 |
| 20260502111601 | 59 | 157 | 0.0 | 2.0 | 0.00 | 0.00 | 0.00 | 90 | 1013.3 |
| 20260502110057 | 59 | 0 | 0.0 | 2.0 | 0.00 | 0.00 | 0.00 | 91 | 1013.4 |
| 20260502104600 | 59 | 0 | 0.0 | 2.0 | 0.00 | 0.00 | 0.00 | 91 | 1013.2 |
| 20260502103056 | 59 | 0 | 0.0 | 3.0 | 0.00 | 0.00 | 0.00 | 91 | 1013.1 |
| 20260502101555 | 59 | 163 | 0.0 | 2.0 | 0.00 | 0.00 | 0.00 | 91 | 1013.2 |
| 20260502100118 | 59 | 0 | 0.0 | 2.0 | 0.00 | 0.00 | 0.00 | 91 | 1013.2 |
| 20260502090106 | 59 | 157 | 0.0 | 4.0 | 0.00 | 0.00 | 0.00 | 90 | 1013.5 |
| 20260502070057 | 59 | 0 | 0.0 | 2.0 | 0.00 | 0.00 | 0.00 | 89 | 1014.1 |
| 20260502064607 | 59 | 0 | 0.0 | 5.0 | 0.00 | 0.00 | 0.00 | 88 | 1014.0 |
| 20260502063054 | 59 | 0 | 0.0 | 2.0 | 0.00 | 0.00 | 0.00 | 88 | 1014.1 |
| 20260502061554 | 60 | 0 | 0.0 | 2.0 | 0.00 | 0.00 | 0.00 | 88 | 1013.9 |
| 20260502060054 | 60 | 0 | 0.0 | 3.0 | 0.00 | 0.00 | 0.00 | 88 | 1013.8 |
| 20260502054553 | 60 | 0 | 0.0 | 2.0 | 0.00 | 0.00 | 0.00 | 88 | 1013.8 |
| 20260502053058 | 60 | 0 | 0.0 | 3.0 | 0.00 | 0.00 | 0.00 | 87 | 1014.0 |
| 20260502051702 | 60 | 155 | 0.0 | 4.0 | 0.00 | 0.00 | 0.00 | 87 | 1014.0 |
| 20260502050100 | 60 | 137 | 2.0 | 7.0 | 0.00 | 0.00 | 0.00 | 87 | 1014.0 |
| 20260502044606 | 61 | 0 | 0.0 | 3.0 | 0.00 | 0.00 | 0.00 | 87 | 1013.9 |
| 20260502043054 | 61 | 0 | 1.0 | 4.0 | 0.00 | 0.00 | 0.00 | 87 | 1013.7 |
| 20260502041554 | 61 | 0 | 0.0 | 3.0 | 0.00 | 0.00 | 0.00 | 87 | 1013.6 |
| 20260502040052 | 61 | 173 | 1.0 | 4.0 | 0.00 | 0.00 | 0.00 | 87 | 1013.4 |
| 20260502034550 | 61 | 0 | 0.0 | 6.0 | 0.00 | 0.00 | 0.00 | 87 | 1013.2 |
| 20260502033055 | 61 | 161 | 1.0 | 8.0 | 0.00 | 0.00 | 0.00 | 86 | 1013.0 |
| 20260502031608 | 61 | 161 | 1.0 | 6.0 | 0.00 | 0.00 | 0.00 | 87 | 1012.5 |
| 20260502030053 | 62 | 132 | 2.0 | 9.0 | 0.00 | 0.00 | 0.00 | 87 | 1012.5 |
| 20260502024554 | 62 | 142 | 1.0 | 10.0 | 0.00 | 0.00 | 0.00 | 86 | 1012.5 |
| 20260502023101 | 62 | 0 | 2.0 | 8.0 | 0.00 | 0.00 | 0.00 | 86 | 1012.4 |
| 20260502021555 | 62 | 90 | 1.0 | 8.0 | 0.00 | 0.00 | 0.00 | 85 | 1012.3 |
| 20260502020106 | 63 | 178 | 2.0 | 11.0 | 0.00 | 0.00 | 0.00 | 84 | 1012.2 |
| 20260502014555 | 64 | 123 | 1.0 | 9.0 | 0.00 | 0.00 | 0.00 | 83 | 1012.0 |
| 20260502013055 | 65 | 57 | 2.0 | 10.0 | 0.00 | 0.00 | 0.00 | 80 | 1012.0 |